Regional Weather Roundup
Issued by NWS

Home | Current Version | Previous Version | Text Only | Print | Product List | Glossary On
Versions: 1 2 3 4 5 6 7 8 9 10 11 12 13 14 15 16 17 18 19 20 21 22 23 24 25 26 27 28
000
ASUS45 KSLC 041010
RWRUT

UTAH REGIONAL WEATHER ROUNDUP
NATIONAL WEATHER SERVICE SALT LAKE CITY UT
400 AM MDT WED MAY 04 2016

UTZ001>011-023>025-041100-

NORTHERN UTAH

CITY           SKY/WX    TMP DP  RH WIND       PRES   REMARKS
BRIGHAM CITY   CLEAR     46  40  79 CALM      30.15S
HILL AFB       PTCLDY    52  35  51 E17       30.15F
LOGAN          CLEAR     40  37  89 CALM      30.17S
OGDEN          PTCLDY    52  36  54 S9        30.14F
PROVO AIRPORT  CLEAR     45  34  65 SE5       30.17F
SALT LAKE CITY PTCLDY    54  36  50 S10       30.13F
VERNAL         CLEAR     45  28  51 W3        30.23S
WENDOVER       PTCLDY    52  37  58 CALM      30.13F
HEBER CITY     CLEAR     34  30  86 CALM      30.23S

$$

UTZ012>022-026-027-041100-

SOUTHERN/CENTRAL UTAH

CITY           SKY/WX    TMP DP  RH WIND       PRES   REMARKS
BLANDING       CLEAR     47  32  54 NE10      30.31S
BRYCE CANYON   PTCLDY    28  24  85 W3        30.31S
CEDAR CITY     MOCLDY    46  32  58 CALM      30.17R
DELTA          CLEAR     46  41  81 E3        30.14F
HANKSVILLE     CLEAR     45  36  70 CALM      30.20S
MILFORD        PTCLDY    40  31  70 VRB3      30.15S
MOAB/CYNLANDS  CLEAR     47  34  60 CALM      30.17R
PRICE          CLEAR     45  28  51 N6        30.24R
ST GEORGE      SUNNY     64  34  32 CALM      30.07S
KANAB          PTCLDY    48  37  66 N5        30.20S

$$

REGIONAL REPORTS     COLORADO/ARIZONA

CITY           SKY/WX    TMP DP  RH WIND       PRES   REMARKS
CRAIG, CO      CLOUDY    31  28  89 CALM      30.29F
GRAND JUNCTION CLEAR     48  32  53 E9        30.21R
RIFLE          CLEAR     41  30  65 CALM      30.27S
MONTROSE       CLEAR     45  29  53 SE9       30.29R
CORTEZ         CLEAR     35  28  75 CALM      30.27S
PAGE, AZ       PTCLDY    55  34  45 CALM      30.14R
GRAND CANYON   PTCLDY    40  31  70 CALM      30.24S
KINGMAN        CLEAR     65  33  30 SE13      30.01S
FLAGSTAFF      CLEAR     35  31  85 E3        30.24F

$$

REGIONAL REPORTS    NEVADA/IDAHO/WYOMING

CITY           SKY/WX    TMP DP  RH WIND       PRES   REMARKS
LAS VEGAS, NV  CLEAR     68  39  34 W5        29.91F
ELY            CLOUDY    42  34  73 E3        30.19F
ELKO           CLOUDY    51  36  56 E6        30.11S
POCATELLO, ID  CLEAR     42  37  82 SE5       30.16F
BURLEY         PTCLDY    50  32  50 SE5       30.10S
EVANSTON, WY   CLOUDY    44  25  47 SE7       30.29S
ROCK SPRINGS   CLOUDY    42  27  55 SE8       30.28S
KEMMERER         N/A     37  27  65 NW12      30.30S WCI  30

$$




USA.gov is the U.S. government's official web portal to all federal, state and local government web resources and services.